Location: Unspecified
(0.0000°N, 0.0000°E)
Time: 16:33:26
(UTC+00:00)

deb r/b Ablestar - Pass Details

Date: 11 March 2026
Orbit: 726 x 907 km, 66.9° (Epoch: 18 April)

Event Time Altitude Azimuth Distance (km) Brightness Sun altitude
Rises 19:39:14 0° 176° (S) 3,384 ? -22.3°
Reaches altitude 10° 19:42:06 10° 162° (SSE) 2,479 ? -23.0°
Enters shadow 19:43:00 14° 156° (SSE) 2,235 ? -23.2°
